Theta_e
318 319 321 321 322 322 322 322 323 324 324 324 323 324 324 324 324 325 324 325 326 327 330 345 346 348 351 349 346 343 341 333 334 336 344 349 346 340 335 330 327 317 320 317
322 322 321 321 321 322 322 322 322 323 323 323 323 323 324 324 324 324 324 324 325 327 329 336 348 347 336 349 347 343 344 342 335 336 346 348 344 339 333 330 321 317 316 317
322 323 322 321 321 320 320 321 321 321 322 322 322 322 323 323 323 323 323 323 324 324 328 332 348 348 351 348 349 346 343 344 337 343 346 348 344 339 334 331 318 316 316 317
322 322 321 321 320 321 321 321 320 320 321 322 323 322 323 324 324 324 324 323 323 324 325 336 342 350 350 335 332 348 346 342 339 345 349 347 345 341 336 332 322 316 316 317
321 321 322 321 320 320 320 321 321 321 322 322 322 322 322 324 324 325 325 324 323 323 324 328 342 352 353 346 338 339 338 338 347 346 348 347 346 344 338 334 329 317 316 317
321 321 321 321 321 321 320 320 321 321 321 322 322 322 322 323 325 325 325 324 324 324 324 325 327 347 354 352 351 352 350 341 338 346 346 349 347 344 340 335 330 323 317 317
322 322 322 321 321 321 321 321 322 322 322 321 322 322 323 324 325 326 327 327 328 328 327 326 326 326 341 353 353 354 352 334 339 341 344 345 346 342 342 337 333 328 322 317
322 323 323 323 322 322 322 322 322 323 323 323 323 322 322 324 326 326 325 326 327 328 329 329 329 329 330 335 348 353 355 350 337 334 343 340 335 341 343 343 338 331 326 319
320 321 322 322 323 323 323 323 323 326 324 323 323 323 323 327 328 327 326 326 328 328 328 329 330 330 330 331 337 350 352 353 343 335 336 335 333 332 346 342 340 334 329 325
317 319 318 320 319 319 322 323 324 324 327 327 324 323 323 327 327 327 327 327 327 327 328 329 330 332 332 331 333 345 347 354 353 352 349 346 341 343 348 344 342 339 330 327
313 314 314 315 316 317 319 321 322 323 326 328 326 323 328 328 329 328 327 325 325 326 328 329 330 332 332 332 330 333 341 345 349 352 353 349 346 345 347 344 343 340 331 327
311 312 313 313 315 315 315 317 322 324 326 325 325 327 327 327 327 326 324 322 323 324 326 328 329 330 332 334 333 329 330 342 343 346 351 349 346 349 349 343 341 334 330 329
310 310 311 311 312 313 312 314 315 318 321 324 326 327 323 323 322 319 319 318 319 321 324 327 328 329 330 331 334 333 329 330 341 342 345 346 345 344 345 342 342 331 326 330
305 307 308 310 311 310 310 313 313 314 316 318 319 321 321 322 323 321 318 315 316 318 321 324 327 328 328 330 330 333 334 330 334 342 341 345 343 344 342 338 341 331 325 324
308 309 308 308 308 307 307 307 308 308 311 313 314 315 316 317 316 315 312 311 314 317 318 318 322 326 328 329 329 330 333 335 338 342 341 341 342 340 339 337 336 327 330 324
308 309 308 307 307 307 306 306 306 307 307 308 309 310 312 311 309 309 309 310 312 315 316 315 317 322 326 327 328 330 332 335 334 336 339 339 340 338 336 336 337 328 327 326
308 309 309 309 308 308 308 307 307 307 308 308 308 309 310 310 310 309 309 309 309 309 310 311 314 319 324 325 327 329 334 335 334 334 335 336 336 335 335 334 336 329 329 331
309 308 308 309 308 308 308 309 308 308 308 309 309 309 309 309 309 308 308 308 308 308 309 309 311 317 321 323 324 326 328 332 334 332 333 333 334 332 332 334 334 335 333 331
308 308 309 311 309 308 308 308 308 309 309 309 309 309 309 309 309 309 309 308 308 309 309 309 309 312 317 319 321 324 326 327 327 330 331 331 332 334 333 332 333 334 334 331
307 308 310 309 310 310 309 308 308 308 309 310 310 311 310 309 310 311 311 311 310 310 310 311 312 310 312 316 321 322 324 325 327 324 329 330 331 331 331 333 332 332 334 331
309 310 312 311 310 309 308 308 308 309 311 310 309 309 309 310 310 309 309 309 309 309 309 309 311 312 313 317 320 320 322 322 324 326 322 325 329 331 331 331 332 331 333 332
310 310 312 312 312 312 309 310 311 311 309 309 309 309 310 310 309 308 308 308 308 308 308 309 309 311 313 316 319 322 320 317 322 323 321 326 328 330 331 331 332 330 331 332
311 310 312 311 311 309 306 306 306 306 307 307 307 308 308 308 308 308 308 309 308 308 308 308 308 309 311 313 317 320 321 317 318 320 322 325 327 329 330 331 331 332 332 332
308 308 310 309 308 307 306 307 307 307 307 308 307 307 307 307 307 307 307 307 308 307 308 308 308 308 309 311 315 314 320 318 319 318 319 319 318 323 322 324 325 323 325 325
307 307 309 309 308 306 306 305 304 304 303 304 306 308 307 307 308 307 307 307 307 308 308 308 307 307 309 310 314 315 318 319 319 318 317 317 317 318 315 318 315 315 315 316
308 309 308 307 304 303 302 302 303 304 304 304 303 303 304 305 305 307 307 307 307 307 307 307 308 308 307 309 310 315 316 317 317 317 315 316 315 315 314 316 316 316 313 314
Wind_Speed
17 11 16 18 19 21 21 21 22 14 17 17 16 18 21 22 25 19 20 24 31 30 39 33 31 20 22 22 31 34 35 36 35 32 27 24 20 20 16 14 19 20 18 16
13 16 17 16 16 17 18 20 23 19 19 14 17 21 20 20 19 23 23 26 25 29 32 28 21 30 34 32 31 31 32 38 37 35 28 23 20 19 18 17 20 21 20 18
18 17 16 12 16 16 19 19 20 21 21 22 20 23 23 24 28 28 27 29 27 30 30 28 30 31 36 35 27 31 36 36 38 33 29 27 22 20 21 21 21 23 21 19
20 20 20 20 15 17 20 17 18 19 17 17 19 18 22 23 26 25 30 30 29 29 30 30 29 32 33 37 35 32 37 39 37 33 30 31 29 27 23 21 22 26 24 21
20 20 22 19 20 17 18 19 19 17 18 20 22 16 20 16 19 16 17 25 30 28 30 31 35 33 32 30 37 49 51 40 31 37 32 36 30 24 23 22 24 27 26 25
24 22 21 16 14 17 17 19 22 20 18 17 24 22 21 18 21 22 14 19 17 19 25 29 28 35 35 34 36 40 44 43 40 36 36 35 30 25 24 26 28 27 29 28
23 25 24 19 19 18 16 16 13 16 15 19 22 22 20 15 20 5 6 6 8 8 10 13 14 22 35 34 34 37 35 41 39 39 31 41 34 30 27 30 29 30 30 32
18 17 19 18 17 21 24 22 16 23 18 20 21 23 20 17 9 2 5 1 4 7 9 8 12 15 13 26 31 34 30 37 52 49 50 40 36 32 52 47 36 34 33 31
14 20 12 2 9 10 17 21 21 25 26 21 22 21 18 12 10 8 5 1 5 7 6 6 7 11 13 12 29 31 35 36 37 50 53 53 36 48 50 47 40 31 26 27
6 12 21 8 4 16 19 18 15 14 23 26 21 23 18 21 17 11 11 8 3 4 5 5 5 5 8 12 11 26 30 33 36 39 45 51 49 45 39 41 44 36 30 27
13 9 18 22 12 17 17 18 20 19 17 15 19 18 11 4 7 12 8 5 4 3 6 8 8 7 6 5 9 13 23 28 31 35 37 47 44 41 40 43 45 34 33 28
9 7 14 19 16 5 11 16 21 10 18 20 19 12 12 7 10 3 7 6 6 6 8 9 10 11 10 8 7 9 17 22 25 29 30 33 41 41 45 49 44 33 27 22
9 7 12 15 17 18 12 19 16 17 16 18 12 12 10 2 2 2 3 7 9 9 9 10 10 12 13 13 11 9 9 19 22 25 27 31 32 41 44 48 47 43 35 34
4 11 15 14 18 9 8 16 13 15 14 20 21 27 23 7 15 21 15 14 11 9 9 10 10 12 15 16 16 13 9 11 22 21 22 24 30 39 43 40 45 46 45 41
8 14 16 17 16 16 17 17 17 16 17 20 21 24 15 11 3 18 23 13 13 10 9 11 13 14 14 17 18 19 12 8 5 16 19 21 30 32 35 41 44 51 41 51
5 13 14 17 18 18 21 21 20 21 22 22 22 22 20 22 5 18 15 14 9 13 13 14 13 13 14 16 19 20 14 8 6 10 15 20 22 25 28 41 47 48 52 54
12 12 13 17 17 18 14 17 20 21 22 19 20 20 17 14 10 11 14 13 12 12 13 15 15 13 11 12 16 18 15 10 5 6 11 14 18 21 28 37 47 52 52 51
16 15 13 13 16 17 18 14 6 14 17 17 18 18 17 18 20 18 18 17 14 14 16 15 14 14 13 12 13 15 17 12 6 12 12 11 22 24 27 35 43 50 44 45
14 13 12 12 15 18 21 14 15 15 17 16 16 17 19 17 16 19 23 19 12 9 13 14 14 15 15 17 15 13 14 14 13 10 13 16 11 18 24 28 36 40 43 42
10 11 11 14 15 18 16 17 7 10 16 15 15 17 20 18 10 6 10 9 8 11 13 15 16 17 17 15 12 11 9 10 11 13 8 14 14 17 20 26 32 37 34 39
9 10 12 12 12 11 17 21 21 14 13 23 16 13 11 9 12 17 14 15 13 14 14 15 15 14 15 13 13 8 7 8 8 9 11 8 14 13 19 23 29 29 35 34
13 8 9 9 7 11 19 18 15 21 31 26 24 21 20 23 21 18 21 19 18 17 16 15 15 14 14 12 13 11 7 7 5 6 7 5 8 16 13 19 23 32 33 34
5 2 6 5 7 25 33 28 29 28 33 32 31 33 32 27 25 25 23 24 22 21 20 18 16 16 14 16 14 10 7 4 4 2 2 1 3 11 17 20 22 23 30 35
7 13 5 11 11 17 24 31 31 35 37 36 37 39 34 34 31 27 29 30 31 28 24 21 19 16 16 15 16 18 13 8 8 6 2 6 9 4 5 19 22 17 16 20
16 12 9 17 22 26 24 25 31 33 33 32 33 29 30 31 30 29 30 26 25 27 26 23 21 18 16 15 15 14 14 12 11 8 7 6 6 7 7 9 15 13 10 13
5 4 3 6 22 22 26 36 39 39 36 30 28 28 30 31 30 26 28 24 26 22 21 22 19 20 16 15 17 11 12 15 14 10 9 10 9 9 8 8 16 11 6 4
Wind_Direction
197 216 221 231 232 257 275 284 284 273 245 253 250 252 252 238 251 250 252 235 238 216 248 189 185 190 200 201 210 192 186 199 193 194 180 182 185 182 184 183 201 189 187 185
206 228 249 249 247 261 252 261 266 271 265 266 252 252 260 264 253 253 252 247 236 236 224 219 193 190 202 206 206 199 197 202 199 198 181 186 186 185 182 183 201 191 192 190
234 232 225 236 256 245 251 252 264 258 260 237 253 259 253 253 252 250 248 249 247 246 235 204 190 191 188 178 206 207 208 210 204 196 180 185 186 186 182 193 200 199 198 194
246 236 249 259 240 252 252 245 247 266 267 255 238 255 251 237 238 243 241 241 246 242 250 204 206 188 194 204 203 228 211 213 206 196 186 190 192 191 193 193 199 203 203 200
251 255 238 252 258 248 252 264 260 244 249 266 260 264 266 261 245 238 231 238 238 236 235 238 196 195 197 195 205 202 213 232 205 205 199 200 195 201 196 188 198 205 205 206
261 260 267 269 253 242 253 256 252 258 261 245 244 250 254 244 238 239 212 250 249 247 237 235 231 197 191 194 201 208 211 203 228 218 189 201 194 200 201 194 200 200 207 210
239 234 243 233 249 257 248 239 251 245 235 246 247 245 249 262 266 24 49 17 354 331 285 275 280 231 198 190 203 207 206 211 211 220 211 214 201 208 216 210 206 197 204 207
278 267 225 199 220 248 240 235 236 247 252 259 241 233 244 234 124 166 205 319 346 339 329 306 277 286 278 212 212 208 205 203 211 219 210 214 216 243 236 230 220 211 207 212
305 267 249 206 271 266 258 257 256 255 272 276 272 267 273 145 160 173 151 10 14 337 313 302 287 281 280 271 212 215 218 210 214 214 220 212 216 205 217 218 214 209 201 210
335 287 282 260 238 263 264 276 275 248 253 254 259 262 260 191 188 162 151 146 92 336 311 309 300 295 282 268 257 216 213 207 213 226 225 217 208 215 207 213 213 208 199 202
300 270 279 292 258 266 262 239 250 264 261 256 270 257 25 30 100 150 118 101 79 12 356 346 342 339 322 291 257 241 217 220 217 211 214 215 215 218 208 206 215 208 199 195
329 308 284 278 283 342 286 279 282 256 255 266 272 250 55 53 117 105 92 50 22 18 21 354 359 5 354 336 309 268 245 221 218 215 217 227 215 214 212 202 203 192 185 217
6 255 276 268 238 230 244 257 252 263 278 251 272 243 97 211 97 74 37 18 344 359 10 8 3 9 5 356 340 319 269 233 219 214 217 219 215 219 210 207 199 195 177 221
316 271 268 277 303 330 282 299 266 249 263 256 242 258 260 274 327 335 326 338 323 332 350 6 0 1 2 6 360 344 313 250 223 215 216 217 215 214 206 198 201 190 177 199
241 278 283 281 292 296 285 277 274 266 264 260 267 271 265 259 41 248 288 309 302 300 323 345 346 347 352 357 358 354 334 306 257 212 222 222 225 225 222 212 197 192 215 201
253 264 279 274 269 261 266 264 264 262 261 265 268 268 283 295 237 258 285 304 315 303 305 313 325 333 345 350 354 354 352 329 303 241 228 218 222 224 218 213 207 209 204 205
271 266 276 278 283 288 268 265 261 254 254 256 260 267 275 287 254 292 288 297 309 317 314 301 299 310 335 336 356 359 354 339 299 265 239 223 222 222 228 214 216 208 204 210
262 266 273 271 279 268 270 274 304 293 294 288 258 258 270 277 290 284 279 286 296 302 306 303 292 293 308 315 331 349 360 346 345 250 242 227 230 231 228 216 213 216 204 208
235 258 266 267 267 272 279 278 265 286 268 276 280 279 277 284 296 291 277 268 279 305 308 304 294 287 294 295 297 316 342 357 345 296 250 244 232 224 221 223 217 218 209 206
237 243 256 269 273 268 266 277 326 295 277 289 282 283 260 276 252 241 11 353 318 299 307 308 303 285 276 290 281 287 320 344 346 357 295 253 238 232 228 224 220 212 208 203
231 245 231 241 254 273 281 285 291 269 287 310 311 303 292 261 274 318 309 298 292 290 294 303 303 292 274 285 285 282 287 338 331 323 337 327 246 235 227 221 216 213 204 201
283 283 261 253 247 257 13 340 309 321 316 314 298 286 290 288 292 289 284 283 278 281 283 290 296 292 281 281 283 260 280 264 310 318 301 300 265 225 200 204 213 204 196 196
305 345 299 297 291 312 311 309 304 297 293 292 284 280 278 275 281 280 275 282 279 283 275 277 284 284 279 265 281 238 256 256 228 255 293 133 225 198 193 188 185 194 199 184
309 310 259 288 274 276 292 299 294 293 290 286 281 279 276 272 274 279 273 271 265 269 268 267 267 274 274 269 262 274 236 212 192 203 214 96 93 130 180 147 143 141 144 137
287 287 274 281 283 320 299 309 303 298 293 289 275 277 269 267 263 267 265 265 261 261 258 253 259 259 269 264 274 273 240 204 191 188 193 211 200 179 135 122 83 91 88 137
302 20 300 287 301 291 290 299 306 301 292 286 282 275 267 264 265 263 251 255 256 254 256 248 245 247 252 265 264 258 251 228 216 190 186 172 156 129 143 200 220 242 19 318